Location: Assche-ter-Heiden
(50.9174°N, 4.1574°E)
Time: 00:43:48
(UTC+00:00)

STARLINK-60 - Pass Details

Date: 20 January 2020
Orbit: 406 x 414 km, 53.0° (Epoch: 28 February)

Event Time Altitude Azimuth Distance (km) Brightness Sun altitude
Exits shadow 04:31:53 19° 73° (ENE) 1,082 5.8 -28.4°
Drops below altitude 10° 04:32:58 10° 78° (ENE) 1,506 6.8 -28.3°
Enters shadow 05:28:42 -70° 278° (W) 12,380 10.5 -19.5°
Maximum altitude 06:06:23 85° 15° (NNE) 428 3.0 -13.7°
